[Iaude] MPEC E216: 2022 EL6 [a=1.15,e=0.27,i=32.7,H=25.0]

mpec at marsden.cfa.harvard.edu mpec at marsden.cfa.harvard.edu
Tue Mar 15 03:27:42 EDT 2022


M.P.E.C. 2022-E216                               Issued 2022 March 15, 07:26 UT

     The Minor Planet Electronic Circulars contain information on unusual
         minor planets and routine data on comets.  They are published
    on behalf of Division F of the International Astronomical Union by the
          Minor Planet Center, Smithsonian Astrophysical Observatory,
                          Cambridge, MA 02138, U.S.A.

             Prepared using the Tamkin Foundation Computer Network

                              MPC at CFA.HARVARD.EDU
            URL https://www.minorplanetcenter.net/    ISSN 1523-6714

                                    2022 EL6                                    


Observations:
     K22E06L  C2022 03 13.39052 14 35 24.37 +30 21 47.8          20.0 GVEE216703
     K22E06L  C2022 03 13.39585 14 35 21.25 +30 20 34.8          19.0 GVEE216703
     K22E06L  C2022 03 13.40652 14 35 15.68 +30 18 14.9          20.0 GVEE216703
     K22E06L* C2022 03 14.37365614 26 01.32 +25 36 58.3          19.49GVEE216G96
     K22E06L  C2022 03 14.37877414 25 57.24 +25 35 04.8          19.20GVEE216G96
     K22E06L  C2022 03 14.38390814 25 53.12 +25 33 09.6          19.40GVEE216G96
     K22E06L  C2022 03 14.38904214 25 48.98 +25 31 14.1          19.35GVEE216G96
     K22E06L mC2022 03 14.44190314 25 05.70 +25 11 06.0          19.34GVEE216I52
     K22E06L mC2022 03 14.44209114 25 05.53 +25 11 01.6          19.11GVEE216I52
     K22E06L mC2022 03 14.44228014 25 05.37 +25 10 57.3          19.16GVEE216I52
     K22E06L mC2022 03 14.50611014 24 11.80 +24 45 32.3          19.05GVEE216I52
     K22E06L mC2022 03 14.50630014 24 11.62 +24 45 27.6          19.15GVEE216I52
     K22E06L mC2022 03 14.50648914 24 11.48 +24 45 23.0          18.92GVEE216I52
     K22E06L KC2022 03 14.89679214 19 07.96 +21 45 56.2          19.0 GVEE216104
     K22E06L KC2022 03 14.90489414 19 00.23 +21 41 49.3                VEE216104
     K22E06L KC2022 03 14.90962014 18 55.65 +21 39 24.9          19.2 GVEE216104
     K22E06L hC2022 03 14.98683714 17 37.53 +20 58 44.6          19.1 GVEE216L01
     K22E06L hC2022 03 14.98838414 17 35.93 +20 57 54.1          19.0 GVEE216L01
     K22E06L hC2022 03 14.98997914 17 34.28 +20 57 01.7          19.1 GVEE216L01
     K22E06L hC2022 03 14.99157214 17 32.61 +20 56 10.0          19.1 GVEE216L01
     K22E06L hC2022 03 14.99316114 17 30.97 +20 55 18.8          19.0 GVEE216L01
     K22E06L KC2022 03 15.23655814 13 29.34 +18 30 38.3          18.51GVEE216I52
     K22E06L KC2022 03 15.23705214 13 28.80 +18 30 19.7          18.64GVEE216I52
     K22E06L KC2022 03 15.23754614 13 28.23 +18 30 00.6          18.73GVEE216I52
     K22E06L KC2022 03 15.23804014 13 27.66 +18 29 41.7          18.43GVEE216I52

Observer details:
104 San Marcello Pistoiese.  Observers P. Bacci, M. Maestripieri.  Measurers
    P. Bacci, L. Tesi, G. Fagioli.  0.60-m reflector + CCD.
703 Catalina Sky Survey.  Observers R. A. Kowalski, J. K. Hogan.  Measurers E.
    J. Christensen, B. Gray, D. Rankin, F. C. Shelly.  0.68-m Schmidt + 10K
    CCD.
G96 Mt. Lemmon Survey.  Observers A. Serrano, K. W. Wierzchos.  Measurers E.
    J. Christensen, G. A. Farneth, J. B. Fazekas, D. C. Fuls, A. R. Gibbs, A.
    D. Grauer, H. Groeller, R. A. Kowalski, S. M. Larson, G. J. Leonard, D.
    Rankin, R. L. Seaman, A. Serrano, F. C. Shelly, K. W. Wierzchos.  1.5-m
    reflector + 10K CCD.
I52 Steward Observatory, Mt. Lemmon Station.  Observers A. R. Gibbs, R. A.
    Kowalski.  Measurers E. J. Christensen, G. A. Farneth, J. B. Fazekas, D.
    C. Fuls, A. R. Gibbs, A. D. Grauer, H. Groeller, R. A. Kowalski, S. M.
    Larson, G. J. Leonard, D. Rankin, R. L. Seaman, A. Serrano, F. C. Shelly,
    K. W. Wierzchos, J. K. Hogan.
L01 Visnjan Observatory, Tican.  Observer K. Korlevic.  1.0-m f/2.9 reflector
    + CCD.

Orbital elements:
2022 EL6                                                 Earth MOID = 0.0126 AU
Epoch 2022 Jan. 21.0 TT = JDT 2459600.5                 Veres                   
M 266.24725              (2000.0)            P               Q                  
n   0.80376168     Peri.  258.51326     -0.25379016     +0.96658772             
a   1.1456480      Node   356.17102     -0.53268255     -0.17076749             
e   0.2690095      Incl.   32.66076     -0.80736600     -0.19117178             
P   1.23           H   25.07          G   0.15           U   8                  
Residuals in seconds of arc
220313 703  0.2+  0.5-    220314 I52  0.1+  0.3+    220314 L01  0.0   0.5-
220313 703 (2.9-  2.5-)   220314 I52  0.2+  0.3+    220314 L01  0.1-  0.3-
220313 703  0.1+  0.4+    220314 I52  0.0   0.2+    220314 L01  0.2+  0.4+
220314 G96  0.2-  0.1+    220314 I52  0.2+  0.3+    220315 I52  0.3-  0.2-
220314 G96  0.1-  0.3+    220314 104  0.4+  0.3-    220315 I52  0.1+  0.1+
220314 G96  0.1-  0.4-    220314 104  0.2+  0.1-    220315 I52  0.1+  0.0
220314 G96 (0.2-  1.0-)   220314 104  0.4-  0.3+    220315 I52  0.1+  0.1+
220314 I52  0.3+  0.2+    220314 L01  0.3-  0.2+
220314 I52  0.3+  0.2+    220314 L01  0.1-  0.0

Ephemeris:
2022 EL6                 a,e,i = 1.15, 0.27, 33                  q = 0.8375
Date    TT    R. A. (2000) Decl.     Delta      r    Elong.  Phase     V
2022 02 13    14 51 27.6 +43 15 32   0.3497  1.1493   108.9    54.3    25.1
...
2022 02 28    14 59 39.2 +41 58 50   0.1900  1.0832   114.5    56.3    23.7
...
2022 03 08    14 54 58.6 +39 07 46   0.1035  1.0473   119.5    55.6    22.3
...
2022 03 14    14 29 59.4 +27 43 23   0.03949 1.0205   131.3    47.0    19.9
2022 03 15    14 17 17.5 +20 54 13   0.02950 1.0161   137.1    41.8    19.1
2022 03 16    13 55 17.2 +07 30 13   0.02048 1.0116   146.3    33.0    18.0
...
2022 03 22    04 16 41.0 -58 13 00   0.05215 0.9855    76.6   100.4    22.3
...
2022 03 30    03 33 48.3 -50 27 15   0.1375  0.9519    66.4   106.0    24.6
...
2022 04 14    03 15 56.4 -46 29 28   0.2940  0.8964    60.7   102.7    25.9

M. P. C. Staff               (C) Copyright 2022 MPC           M.P.E.C. 2022-E216




More information about the Iaude mailing list